sat.trackr.live / text

‹ back to catalog

STARLINK-31481

NORAD 59541 · 2024-074H

PAYLOAD ACTIVE UNKNOWN

§ Identity

Operator
Country
US
Launch date
2024-04-18
Launch site
AFETR
Launch vehicle
Mass (kg)
RCS (m²)

Purposes: comms

External: N2YO · Heavens-Above · Gunter

§ Orbital elements

Epoch: 2026-05-24T18:16:04.027872Z

Period
94.27 min
Inclination
43.0019°
Eccentricity
0.0001625
Mean motion
15.27574024 rev/d
Perigee alt
482.0 km
Apogee alt
484.2 km
Semi-major
6,861.2 km
B*
1.2046e-6
RAAN
273.4711°
Arg perigee
265.5126°
Mean anomaly
94.5540°
Rev number
11,765

§ Raw data

STARLINK-314811 59541U 24074H   26144.76115773 -.00000229  00000+0  12046-5 0  99962 59541  43.0019 273.4711 0001625 265.5126  94.5540 15.27574024117653

JSON: /api/v1/satellites/59541 · /tle

For live sub-satellite position, see the globe view (requires WebGL).

§ Visibility from observer

Set your observer location to see the next 7 days of passes ≥ 10°. The values pass through the URL so the page stays shareable.

No JS? Fill the form by hand. The geolocation button needs JavaScript.